Regional Weather Roundup
Issued by NWS

Home | Current Version | Previous Version | Text Only | Print | Product List | Glossary Off
Versions: 1 2 3 4 5 6 7 8 9 10 11 12 13 14 15 16 17 18 19 20 21 22 23 24 25 26 27

000
ASUS45 KPSR 220510
RWRAZ

ARIZONA HOURLY REGIONAL WEATHER ROUNDUP
NATIONAL WEATHER SERVICE PHOENIX AZ
1000 PM MST TUE NOV 21 2017

NOTE: FAIR INDICATES FEW OR NO CLOUDS BELOW 12,000 FEET WITH NO
SIGNIFICANT WEATHER AND/OR OBSTRUCTIONS TO VISIBILITY.

AZZ001>003-036-220600-
NORTHWEST ARIZONA

CITY           SKY/WX    TMP DP  RH WIND       PRES   REMARKS
BULLHEAD CITY  MOCLDY    73  12   9 N24       30.11S
KINGMAN        PTCLDY    52  18  26 E7        30.27S
$$

AZZ004>008-015-016-018-220600-
NORTH CENTRAL ARIZONA

CITY           SKY/WX    TMP DP  RH WIND       PRES   REMARKS
GRAND CANYON   PTCLDY    38  23  55 CALM      30.43R
WILLIAMS       PTCLDY    45  27  49 SE7       30.41S
PRESCOTT       CLEAR     50  31  48 SW3       30.32R
FLAGSTAFF      PTCLDY    49  27  42 NE10      30.43R
PAYSON         PTCLDY    55  23  28 NE3       30.33S
PAGE           PTCLDY    49  17  28 SE3       30.35R
$$

AZZ009>014-017-220600-
NORTHEAST ARIZONA

CITY           SKY/WX    TMP DP  RH WIND       PRES   REMARKS
WINSLOW        PTCLDY    44  16  32 MISG      30.37R
SAINT JOHNS    MOCLDY    43  18  36 S6        30.38R
WINDOW ROCK    CLEAR     34  21  59 CALM      30.44R
SHOW LOW       PTCLDY    39  16  38 CALM      30.42S
$$

AZZ540-542>544-546-548-220600-
GREATER PHOENIX AREA

CITY           SKY/WX    TMP DP  RH WIND       PRES   REMARKS
PHOENIX        PTCLDY    68  30  24 CALM      30.07R
BUCKEYE        PTCLDY    63  18  17 CALM      30.08R
LUKE AFB       CLEAR     60  35  38 N7        30.05F
DEER VALLEY    PTCLDY    65  22  19 N9        30.08S
SCOTTSDALE     PTCLDY    66  27  23 SE8       30.09S
MESA-GATEWAY   CLEAR     57  30  35 SE6       30.10S
$$

AZZ539-553-220600-
SOUTHWEST MARICOPA COUNTY AND PINAL COUNTY

CITY           SKY/WX    TMP DP  RH WIND       PRES   REMARKS
CASA GRANDE    NOT AVBL
GILA BEND      MOCLDY    64  18  16 SE3       30.07R
$$

AZZ503-504-507>509-220600-
SOUTHEAST ARIZONA

CITY           SKY/WX    TMP DP  RH WIND       PRES   REMARKS
TUCSON         MOCLDY    59  22  24 SE7       30.16R
DAVIS-MONTHAN  PTCLDY    55  22  27 S7        30.14R
NOGALES        PTCLDY    53  21  28 CALM      30.19R
SIERRA VISTA   PTCLDY    58  15  18 SE5       30.26R
DOUGLAS        CLEAR     52  17  25 NW6       30.22R
SAFFORD        PTCLDY    56  11  16 SE5       30.18R
$$

AZZ532-220600-
SOUTHWEST ARIZONA

CITY           SKY/WX    TMP DP  RH WIND       PRES   REMARKS
YUMA           MOCLDY    71  23  16 NW6       30.05R
$$

CAZ041-043-047-048-061-525>527-560>570-220600-
SOUTHERN CALIFORNIA

CITY           SKY/WX    TMP DP  RH WIND       PRES   REMARKS
DOWNTOWN L.A.  CLEAR     67  48  50 CALM      30.04R
L.A. AIRPORT   CLEAR     69  56  62 CALM      30.04S
SAN DIEGO      PTCLDY    67  50  54 CALM      30.04R
BURBANK        CLEAR     75  27  17 W9        30.06S
ONTARIO        PTCLDY    70  38  31 NE3       30.07S
RIVERSIDE      CLEAR     72  35  25 CALM      30.07S
PALM SPRINGS   CLEAR     69  30  23 NW5       30.11R
EL CENTRO NAS  PTCLDY    59  40  49 E5        30.07R
IMPERIAL       PTCLDY    64  36  35 CALM      30.05R
BLYTHE         MOCLDY    71  12  10 W5        30.08R
$$

NVZ020-UTZ003-220600-
SOUTHERN NEVADA-UTAH

CITY           SKY/WX    TMP DP  RH WIND       PRES   REMARKS
LAS VEGAS      MOCLDY    63  24  22 SW3       30.23R
SALT LAKE CITY MOCLDY    50  42  74 SE6       30.37R
$$

NMZ009-TXZ055-220600-
NEW MEXICO-WEST TEXAS

CITY           SKY/WX    TMP DP  RH WIND       PRES   REMARKS
ALBUQUERQUE    CLOUDY    52  27  38 E13       30.38R
EL PASO        PTCLDY    59  19  21 CALM      30.32R
$$


........................KEY........................
SKY/WX - SKY CONDITION/WEATHER
TMP    - TEMPERATURE IN FAHRENHEIT
DP     - DEW POINT IN FAHRENHEIT
RH     - RELATIVE HUMIDITY IN PERCENT
WIND   - DIRECTION AND SPEED IN MILES PER HOUR (MPH)
VRB    - VARIABLE WIND DIRECTION
PRES   - MEAN SEA LEVEL PRESSURE IN INCHES OF MERCURY
         F - FALLING PRESSURE   R - RISING PRESSURE
         S - STEADY PRESSURE
VSB    - VISIBILITY IN MILES
HX     - HEAT INDEX IN FAHRENHEIT
WCI    - WIND CHILL INDEX IN FAHRENHEIT
TC     - TEMPERATURE IN CELSIUS WHICH IS ALSO KNOWN AS
         TEMPERATURE IN CENTIGRADE
AFB    - AIR FORCE BASE
         LUKE AFB IS LUKE AIR FORCE BASE
         DAVIS-MONTHAN IS DAVIS-MONTHAN AIR FORCE BASE
NAS    - NAVAL AIR STATION
         EL CENTRO NAS IS EL CENTRO NAVAL AIR STATION
N/A    - NOT AVAILABLE





USA.gov is the U.S. government's official web portal to all federal, state and local government web resources and services.